When you browse on this site, cookies collect data to enhance your experience and personalize the content and advertising you see.
Visit our Privacy Policy to learn more. By continuing to use the site, you agree to this use of cookies and data.
  • în România
  • Lista ţărilor
  • Pe 7 zile
  • Temperatura apei
  • Hartă satelitară
  • Meteo pe hartă
  • Widget-uri
  • user-avatar
    Intrare

    Meteo pe oră la Dodow

    Astăzi, 22 Mai, Miercuri

    Timp Temperatura Precipitaţii Vânt Presiune Umiditate
    00:00 +13°C° 0.7 mm 5 m/s 725 mmHg 93%
    01:00 +13°C° 0 mm 4 m/s 725 mmHg 95%
    02:00 +13°C° 0.7 mm 4 m/s 725 mmHg 96%
    03:00 +12°C° 0.7 mm 4 m/s 725 mmHg 96%
    04:00 +12°C° 0.7 mm 3 m/s 725 mmHg 96%
    05:00 +12°C° 0.3 mm 4 m/s 725 mmHg 94%
    06:00 +13°C° 0.3 mm 4 m/s 725 mmHg 93%
    07:00 +13°C° 0 mm 4 m/s 725 mmHg 91%
    08:00 +13°C° 0.7 mm 4 m/s 725 mmHg 92%
    09:00 +13°C° 0.7 mm 4 m/s 726 mmHg 92%
    10:00 +12°C° 0.7 mm 4 m/s 726 mmHg 93%
    11:00 +13°C° 0.4 mm 4 m/s 726 mmHg 92%
    12:00 +13°C° 0.4 mm 5 m/s 726 mmHg 91%
    13:00 +14°C° 0.4 mm 5 m/s 726 mmHg 90%
    14:00 +15°C° 0.6 mm 5 m/s 726 mmHg 88%
    15:00 +15°C° 0.6 mm 5 m/s 727 mmHg 85%
    16:00 +16°C° 0.6 mm 6 m/s 727 mmHg 83%
    17:00 +15°C° 1.8 mm 6 m/s 727 mmHg 85%
    18:00 +15°C° 1.8 mm 6 m/s 727 mmHg 88%
    19:00 +14°C° 1.8 mm 6 m/s 727 mmHg 90%
    20:00 +14°C° 0.9 mm 6 m/s 728 mmHg 91%
    21:00 +13°C° 0.9 mm 6 m/s 728 mmHg 93%
    22:00 +12°C° 0.9 mm 7 m/s 728 mmHg 94%
    23:00 +12°C° 0.3 mm 7 m/s 729 mmHg 94%

    Mâine, 23 Mai, Joi

    Timp Temperatura Precipitaţii Vânt Presiune Umiditate
    00:00 +13°C° 0.3 mm 6 m/s 729 mmHg 94%
    01:00 +13°C° 0.3 mm 6 m/s 729 mmHg 95%
    02:00 +13°C° 0.3 mm 6 m/s 729 mmHg 95%
    03:00 +13°C° 0.3 mm 6 m/s 730 mmHg 95%
    04:00 +13°C° 0.3 mm 5 m/s 730 mmHg 95%
    05:00 +13°C° 0.4 mm 5 m/s 730 mmHg 94%
    06:00 +14°C° 0.4 mm 5 m/s 731 mmHg 93%
    07:00 +14°C° 0.4 mm 5 m/s 731 mmHg 93%
    08:00 +14°C° 0.6 mm 6 m/s 731 mmHg 92%
    09:00 +14°C° 0.6 mm 6 m/s 732 mmHg 92%
    10:00 +14°C° 0.6 mm 6 m/s 732 mmHg 92%
    11:00 +14°C° 0.8 mm 6 m/s 732 mmHg 92%
    12:00 +12°C° 0.8 mm 7 m/s 732 mmHg 92%
    13:00 +12°C° 0.8 mm 7 m/s 732 mmHg 92%
    14:00 +12°C° 0.5 mm 7 m/s 733 mmHg 92%
    15:00 +12°C° 0.5 mm 7 m/s 733 mmHg 92%
    16:00 +11°C° 0.5 mm 7 m/s 733 mmHg 93%
    17:00 +11°C° 0.9 mm 6 m/s 733 mmHg 93%
    18:00 +11°C° 0.9 mm 6 m/s 733 mmHg 93%
    19:00 +12°C° 0.9 mm 5 m/s 733 mmHg 94%
    20:00 +12°C° 0.6 mm 5 m/s 733 mmHg 94%
    21:00 +11°C° 0.6 mm 6 m/s 733 mmHg 94%
    22:00 +11°C° 0.6 mm 6 m/s 733 mmHg 94%
    23:00 +11°C° 0.8 mm 6 m/s 733 mmHg 94%

    Poimâine, 24 Mai, Vineri

    Timp Temperatura Precipitaţii Vânt Presiune Umiditate
    00:00 +11°C° 0.8 mm 6 m/s 733 mmHg 95%
    01:00 +12°C° 0.8 mm 5 m/s 733 mmHg 95%
    02:00 +12°C° 0.6 mm 5 m/s 733 mmHg 95%
    03:00 +11°C° 0.6 mm 4 m/s 733 mmHg 95%
    04:00 +11°C° 0.6 mm 4 m/s 733 mmHg 95%
    05:00 +11°C° 0.5 mm 4 m/s 733 mmHg 94%
    06:00 +11°C° 0.5 mm 3 m/s 734 mmHg 92%
    07:00 +11°C° 0.5 mm 3 m/s 734 mmHg 91%
    08:00 +12°C° 0.5 mm 3 m/s 734 mmHg 88%
    09:00 +12°C° 0.5 mm 3 m/s 734 mmHg 85%
    10:00 +13°C° 0.5 mm 3 m/s 734 mmHg 82%
    11:00 +14°C° 0.1 mm 3 m/s 734 mmHg 78%
    12:00 +16°C° 0.1 mm 3 m/s 733 mmHg 74%
    13:00 +18°C° 0.1 mm 3 m/s 733 mmHg 70%
    14:00 +18°C° 0 mm 3 m/s 733 mmHg 72%
    15:00 +18°C° 0 mm 3 m/s 733 mmHg 75%
    16:00 +17°C° 0 mm 3 m/s 732 mmHg 77%
    17:00 +17°C° 0 mm 2 m/s 732 mmHg 78%
    18:00 +16°C° 0 mm 2 m/s 732 mmHg 80%
    19:00 +16°C° 0 mm 2 m/s 732 mmHg 81%
    20:00 +15°C° 0 mm 2 m/s 732 mmHg 82%
    21:00 +14°C° 0 mm 2 m/s 732 mmHg 82%
    22:00 +14°C° 0 mm 2 m/s 733 mmHg 83%
    23:00 +13°C° 0 mm 2 m/s 732 mmHg 84%

    25 Mai, Sâmbătă

    Timp Temperatura Precipitaţii Vânt Presiune Umiditate
    00:00 +13°C° 0 mm 2 m/s 732 mmHg 85%
    01:00 +12°C° 0 mm 2 m/s 732 mmHg 87%
    02:00 +12°C° 0 mm 2 m/s 732 mmHg 88%
    03:00 +10°C° 0 mm 2 m/s 732 mmHg 89%
    04:00 +10°C° 0 mm 2 m/s 732 mmHg 90%
    05:00 +12°C° 0 mm 2 m/s 732 mmHg 87%
    06:00 +14°C° 0 mm 2 m/s 732 mmHg 84%
    07:00 +16°C° 0 mm 2 m/s 733 mmHg 80%
    08:00 +17°C° 0.1 mm 2 m/s 733 mmHg 75%
    09:00 +18°C° 0.1 mm 2 m/s 733 mmHg 70%
    10:00 +19°C° 0.1 mm 3 m/s 733 mmHg 65%
    11:00 +20°C° 0.2 mm 3 m/s 733 mmHg 64%
    12:00 +21°C° 0.2 mm 3 m/s 732 mmHg 62%
    13:00 +21°C° 0.2 mm 3 m/s 732 mmHg 60%
    14:00 +21°C° 0.2 mm 3 m/s 732 mmHg 61%
    15:00 +21°C° 0.2 mm 4 m/s 732 mmHg 62%
    16:00 +21°C° 0.2 mm 4 m/s 732 mmHg 64%
    17:00 +19°C° 0.1 mm 3 m/s 732 mmHg 71%
    18:00 +18°C° 0.1 mm 3 m/s 732 mmHg 78%
    19:00 +16°C° 0.1 mm 2 m/s 732 mmHg 85%
    20:00 +15°C° 0 mm 2 m/s 732 mmHg 86%
    21:00 +14°C° 0 mm 1 m/s 732 mmHg 88%
    22:00 +13°C° 0 mm 1 m/s 733 mmHg 89%
    23:00 +13°C° 0 mm 1 m/s 733 mmHg 90%

    26 Mai, Duminică

    Timp Temperatura Precipitaţii Vânt Presiune Umiditate
    00:00 +12°C° 0 mm 1 m/s 732 mmHg 90%
    01:00 +12°C° 0 mm 2 m/s 732 mmHg 91%
    02:00 +12°C° 0 mm 2 m/s 732 mmHg 91%
    03:00 +12°C° 0 mm 2 m/s 732 mmHg 91%
    04:00 +12°C° 0 mm 2 m/s 732 mmHg 91%
    05:00 +13°C° 0 mm 2 m/s 732 mmHg 89%
    06:00 +14°C° 0 mm 2 m/s 732 mmHg 87%
    07:00 +15°C° 0 mm 2 m/s 732 mmHg 85%
    08:00 +16°C° 0 mm 2 m/s 732 mmHg 81%
    09:00 +17°C° 0 mm 3 m/s 732 mmHg 76%
    10:00 +18°C° 0 mm 3 m/s 732 mmHg 71%
    11:00 +18°C° 0.2 mm 4 m/s 732 mmHg 70%
    12:00 +19°C° 0.2 mm 4 m/s 732 mmHg 68%
    13:00 +19°C° 0.2 mm 5 m/s 731 mmHg 67%
    14:00 +19°C° 0.2 mm 5 m/s 731 mmHg 69%
    15:00 +18°C° 0.2 mm 4 m/s 731 mmHg 70%
    16:00 +17°C° 0.2 mm 4 m/s 731 mmHg 72%
    17:00 +16°C° 0 mm 3 m/s 731 mmHg 74%
    18:00 +14°C° 0 mm 3 m/s 731 mmHg 75%
    19:00 +14°C° 0 mm 2 m/s 732 mmHg 77%
    20:00 +13°C° 0 mm 2 m/s 732 mmHg 76%
    21:00 +11°C° 0 mm 3 m/s 732 mmHg 75%
    22:00 +10°C° 0 mm 3 m/s 733 mmHg 74%
    23:00 +10°C° 0 mm 3 m/s 733 mmHg 75%

    27 Mai, Luni

    Timp Temperatura Precipitaţii Vânt Presiune Umiditate
    00:00 +9°C° 0 mm 3 m/s 733 mmHg 76%
    01:00 +9°C° 0 mm 2 m/s 733 mmHg 77%
    02:00 +8°C° 0 mm 2 m/s 733 mmHg 81%
    03:00 +8°C° 0 mm 2 m/s 733 mmHg 85%
    04:00 +7°C° 0 mm 2 m/s 733 mmHg 89%
    05:00 +9°C° 0 mm 2 m/s 733 mmHg 85%
    06:00 +10°C° 0 mm 2 m/s 733 mmHg 81%
    07:00 +13°C° 0 mm 1 m/s 734 mmHg 77%
    08:00 +15°C° 0 mm 2 m/s 733 mmHg 72%
    09:00 +16°C° 0 mm 2 m/s 733 mmHg 68%
    10:00 +18°C° 0 mm 2 m/s 733 mmHg 63%
    11:00 +18°C° 0 mm 2 m/s 733 mmHg 61%
    12:00 +20°C° 0 mm 1 m/s 733 mmHg 60%
    13:00 +21°C° 0 mm 1 m/s 732 mmHg 58%
    14:00 +21°C° 0 mm 1 m/s 732 mmHg 60%
    15:00 +20°C° 0 mm 2 m/s 731 mmHg 62%
    16:00 +21°C° 0 mm 2 m/s 731 mmHg 64%
    17:00 +19°C° 0 mm 3 m/s 730 mmHg 70%
    18:00 +18°C° 0 mm 3 m/s 730 mmHg 76%
    19:00 +17°C° 0 mm 3 m/s 730 mmHg 83%
    20:00 +16°C° 0 mm 3 m/s 729 mmHg 85%
    21:00 +16°C° 0 mm 3 m/s 729 mmHg 87%
    22:00 +14°C° 0 mm 3 m/s 729 mmHg 88%
    23:00 +15°C° 0 mm 2 m/s 729 mmHg 90%
    Arată mai mult